Regional Weather Roundup
Issued by NWS Northern Indiana

Home | Current Version | Previous Version | Graphics & Text | Print | Product List | Glossary On
Versions: 1 2 3 4 5 6 7 8 9 10 11 12 13 14 15 16 17 18 19 20 21 22 23 24 25 26 27 28 29 30 31 32 33 34 35 36 37 38 39 40 41 42 43 44 45 46 47 48 49 50
000
ASUS43 KIWX 200300
RWRIWX

KIWX WEATHER ROUNDUP
NATIONAL WEATHER SERVICE NORTHERN INDIANA
1000 PM EST SUN NOV 19 2017

NOTE: "FAIR" INDICATES FEW OR NO CLOUDS BELOW 12,000 FEET WITH NO
SIGNIFICANT WEATHER AND/OR OBSTRUCTIONS TO VISIBILITY.

* THESE STATIONS ARE NOT UNDER NWS QUALITY CONTROL. THEY ALSO MAY NOT
  REPORT WEATHER SUCH AS PRECIPITATION OR FOG.

INZ001>027-200400-
NORTHERN INDIANA

CITY           SKY/WX    TMP DP  RH WIND       PRES   REMARKS
GARY*          CLEAR     32  19  59 SW8       30.10S WCI  25
LAPORTE*       CLEAR     28  21  75 W8        30.08S WCI  20
KNOX*          CLEAR     30  23  74 W8        30.10R WCI  23
SOUTH BEND     CLEAR     27  21  78 SW10      30.06R WCI  17
GOSHEN         CLEAR     29  20  69 W14       30.06R WCI  18
MONTICELLO*    CLEAR     29  21  74 W7        30.12S WCI  21
WARSAW*        CLEAR     28  21  74 W10       30.08R WCI  19
AUBURN*        CLEAR     30  21  69 SW8       30.06R WCI  23
FORT WAYNE     CLEAR     31  24  75 W12       30.08R WCI  22
PERU/GRISSOM   CLEAR     28  24  85 W9        30.11R WCI  19

$$
INZ028>050-200400-
CENTRAL INDIANA

CITY           SKY/WX    TMP DP  RH WIND       PRES   REMARKS
LAFAYETTE      CLEAR     27  22  81 W6        30.13S WCI  20
KOKOMO*        CLEAR     29  24  82 W9        30.12S WCI  20
MUNCIE*        CLEAR     29  23  78 W6        30.11S WCI  23
INDIANAPOLIS   CLEAR     27  21  78 SW7       30.15R WCI  19

$$
MIZ043>046-050>051-056>058-064>065-071>073-077>080-200400-
SOUTHWEST LOWER MICHIGAN

CITY           SKY/WX    TMP DP  RH WIND       PRES   REMARKS
BATTLE CREEK   CLOUDY    29  22  75 SW8       30.00S WCI  21
BENTON HARBOR  MOCLDY    35  22  58 W14       30.04S WCI  26
COLDWATER*     PTCLDY    29  22  74 SW9       30.01S WCI  21
HILLSDALE*     CLOUDY    30  21  69 SW9       29.98F WCI  22
HOLLAND        CLOUDY    36  22  56 W15G23    30.01S
GRAND RAPIDS   CLOUDY    31  23  72 W8        29.98S WCI  23
KALAMAZOO      CLOUDY    29  20  69 SW6       30.01S WCI  23
THREE RIVERS*  FAIR      30  22  74 SW5       30.03S WCI  25

$$
OHZ001>008-015>018-024>025-200400-
NORTHWEST OHIO

CITY           SKY/WX    TMP DP  RH WIND       PRES   REMARKS
DEFIANCE       MOCLDY    30  22  72 SW8       30.06R WCI  22
FINDLAY        CLOUDY    32  24  72 W14       30.06R WCI  22
TOLEDO EXPRESS CLOUDY    33  24  69 W14       30.03R WCI  23
TOLEDO METCALF CLOUDY    33  22  63 W13       30.05R WCI  24
LIMA           CLEAR     29  25  85 W15       30.08R WCI  18

$$
AND FOR LAKE MICHIGAN COASTAL AND OPEN LAKE BUOY OBSERVATIONS

STATION/POSITION TEMP    WIND        PRES    VSBY  WAVE
                 AIR SEA DIR/SP/G                  HT/PER
                 (F)     (DEG/KT/KT) (MB)    (MI)  (FT/S)
CALUMET HARBOR    31     210/  6/  8 1017.9F
MICHIGAN CITY     34     240/ 23/ 26   N/A
BURNS HARBOR      33     240/ 14/ 19 1019.3R
SAINT JOSEPH      37     260/ 17/ 20 1017.6
SOUTH LAKE BUOY   36 49  300/ 19/ 23 1017.2          5/ 5

$$
&&



USA.gov is the U.S. government's official web portal to all federal, state and local government web resources and services.